Track SBIRS GEO 4 (USA 282) now! SBIRS GEO 4 (USA 282) is classified as:
1 43162U 18009A 25195.09931050 .00000137 00000-0 00000-0 0 9994 2 43162 2.0879 354.3914 0001893 119.2748 54.9036 1.00272055 27453